sat.trackr.live / text

‹ back to catalog

STARLINK-34026

NORAD 63842 · 2025-093G

PAYLOAD ACTIVE UNKNOWN

§ Identity

Operator
Country
US
Launch date
2025-05-07
Launch site
AFETR
Launch vehicle
Mass (kg)
RCS (m²)

Purposes: comms

External: N2YO · Heavens-Above · Gunter

§ Orbital elements

Epoch: 2026-09-19T18:48:15.711552Z

Period
94.27 min
Inclination
43.0032°
Eccentricity
0.0002941
Mean motion
15.27593316 rev/d
Perigee alt
481.0 km
Apogee alt
485.0 km
Semi-major
6,861.1 km
B*
4.0319e-4
RAAN
61.9906°
Arg perigee
256.3761°
Mean anomaly
103.6763°
Rev number
7,743

§ Raw data

STARLINK-340261 63842U 25093G   26262.78351518  .00010854  00000+0  40319-3 0  99952 63842  43.0032  61.9906 0002941 256.3761 103.6763 15.27593316 77433

JSON: /api/v1/satellites/63842 · /tle

For live sub-satellite position, see the globe view (requires WebGL).

§ Visibility from observer

Set your observer location to see the next 7 days of passes ≥ 10°. The values pass through the URL so the page stays shareable.

No JS? Fill the form by hand. The geolocation button needs JavaScript.